LZ2SLL-13 Weather Reports


time (UTC)temp
F
wind
direction
speed
knots
gust
knots
rain 1hr
in
rain 24hr
in
rain mn
in
humidity
%
barometer
mb
20260506192734 52 181 1.7 1.7 0.00 0.00 0.00 89
20260506192234 52 190 1.7 2.6 0.00 0.00 0.00 88
20260506191733 52 187 1.7 2.6 0.00 0.00 0.00 88
20260506191233 52 101 0.0 0.0 0.00 0.00 0.00 89
20260506190731 52 125 0.9 1.7 0.00 0.00 0.00 89
20260506190231 52 91 0.9 0.9 0.00 0.00 0.00 88
20260506185730 52 151 0.0 0.9 0.00 0.00 0.00 88
20260506185231 52 141 0.9 1.7 0.00 0.00 0.00 88
20260506184729 52 181 1.7 1.7 0.00 0.00 0.00 88
20260506184228 52 138 1.7 2.6 0.00 0.00 0.00 88
20260506183727 52 156 0.9 1.7 0.00 0.00 0.00 88
20260506183227 52 140 1.7 2.6 0.00 0.00 0.00 89
20260506182726 53 90 0.9 0.9 0.00 0.00 0.00 89
20260506182225 52 155 0.9 1.7 0.00 0.00 0.00 90
20260506181725 52 139 0.0 0.0 0.00 0.00 0.00 90
20260506181224 52 118 0.0 0.0 0.00 0.00 0.00 89
20260506180723 52 119 0.9 0.9 0.00 0.00 0.00 89
20260506180222 52 85 0.9 0.9 0.00 0.00 0.00 90
20260506175722 52 103 0.9 0.9 0.00 0.00 0.00 89
20260506175221 52 123 0.9 0.9 0.00 0.00 0.00 88
20260506174720 52 113 0.0 0.0 0.00 0.00 0.00 88
20260506174220 52 118 0.0 0.0 0.00 0.00 0.00 88
20260506173719 52 87 0.0 0.9 0.00 0.00 0.00 88
20260506173218 53 94 0.9 0.9 0.00 0.00 0.00 87
20260506172717 53 72 0.0 0.0 0.00 0.00 0.00 87
20260506172217 53 131 0.9 0.9 0.00 0.00 0.00 86
20260506171716 53 118 0.0 0.0 0.00 0.00 0.00 86
20260506171215 53 122 0.0 0.9 0.00 0.00 0.00 87
20260506170715 54 121 0.9 0.9 0.00 0.00 0.00 86
20260506170214 54 102 0.0 0.0 0.00 0.00 0.00 86
20260506165713 54 150 0.9 0.9 0.00 0.00 0.00 84
20260506165212 55 107 0.9 0.9 0.00 0.00 0.00 83
20260506164712 55 109 0.0 0.9 0.00 0.00 0.00 82
20260506164211 56 122 0.9 0.9 0.00 0.00 0.00 80
20260506163702 56 137 0.9 0.9 0.00 0.00 0.00 79
20260506163202 56 144 1.7 1.7 0.00 0.00 0.00 77
20260506162701 57 116 0.9 0.9 0.00 0.00 0.00 75
20260506162200 58 154 1.7 1.7 0.00 0.00 0.00 73
20260506161659 58 11 0.9 0.9 0.00 0.00 0.00 71
20260506161159 58 87 0.9 1.7 0.00 0.00 0.00 73
20260506160658 59 109 0.0 0.9 0.00 0.00 0.00 71
20260506160157 59 146 1.7 1.7 0.00 0.00 0.00 69
20260506155657 58 99 1.7 1.7 0.00 0.00 0.00 68
20260506155156 59 174 2.6 3.5 0.00 0.00 0.00 68
20260506154655 60 164 0.9 1.7 0.00 0.00 0.00 66
20260506154155 59 101 0.9 0.9 0.00 0.00 0.00 69
20260506153654 59 136 1.7 1.7 0.00 0.00 0.00 67
20260506153153 60 90 0.9 0.9 0.00 0.00 0.00 66
20260506152652 60 25 0.9 0.9 0.00 0.00 0.00 66
20260506152151 60 151 1.7 1.7 0.00 0.00 0.00 65
20260506151651 60 125 0.9 0.9 0.00 0.00 0.00 64
20260506151150 59 154 0.9 1.7 0.00 0.00 0.00 67
20260506150649 58 201 2.6 3.5 0.00 0.00 0.00 67
20260506150149 59 196 1.7 2.6 0.00 0.00 0.00 67
20260506145648 59 166 1.7 2.6 0.00 0.00 0.00 65
20260506145147 60 196 0.9 1.7 0.00 0.00 0.00 66
20260506144646 60 158 1.7 2.6 0.00 0.00 0.00 64
20260506144146 60 103 0.9 1.7 0.00 0.00 0.00 66
20260506143645 61 136 2.6 2.6 0.00 0.00 0.00 64
20260506143144 61 179 2.6 2.6 0.00 0.00 0.00 61
20260506142644 62 152 2.6 2.6 0.00 0.00 0.00 61
20260506142143 60 152 0.9 1.7 0.00 0.00 0.00 62
20260506141642 59 177 3.5 4.3 0.00 0.00 0.00 66
20260506141141 60 205 2.6 4.3 0.00 0.00 0.00 62
20260506140641 62 158 2.6 3.5 0.00 0.00 0.00 59
20260506140140 61 184 1.7 1.7 0.00 0.00 0.00 58
20260506135639 63 167 0.0 1.7 0.00 0.00 0.00 56
20260506135139 62 136 1.7 1.7 0.00 0.00 0.00 58
20260506134638 62 77 1.7 2.6 0.00 0.00 0.00 58
20260506134137 61 155 2.6 4.3 0.00 0.00 0.00 61
20260506133636 59 131 3.5 4.3 0.00 0.00 0.00 61
20260506133136 62 153 2.6 2.6 0.00 0.00 0.00 59
20260506132635 63 243 0.9 1.7 0.00 0.00 0.00 55
20260506132134 60 156 1.7 2.6 0.00 0.00 0.00 61
20260506131634 63 157 2.6 1.7 0.00 0.00 0.00 55
20260506131133 63 228 0.9 1.7 0.00 0.00 0.00 56
20260506130632 61 115 3.5 4.3 0.00 0.00 0.00 56
20260506130131 61 108 2.6 3.5 0.00 0.00 0.00 56
20260506125631 60 155 2.6 2.6 0.00 0.00 0.00 58
20260506125130 59 197 5.2 6.1 0.00 0.00 0.00 56
20260506124630 61 185 2.6 2.6 0.00 0.00 0.00 60
20260506124129 61 180 3.5 4.3 0.00 0.00 0.00 59
20260506123628 61 175 4.3 4.3 0.00 0.00 0.00 54
20260506123127 62 180 1.7 1.7 0.00 0.00 0.00 55
20260506122627 62 135 3.5 5.2 0.00 0.00 0.00 56
20260506122126 62 149 2.6 3.5 0.00 0.00 0.00 56
20260506121626 61 155 2.6 3.5 0.00 0.00 0.00 58
20260506121125 62 147 2.6 3.5 0.00 0.00 0.00 56
20260506120624 62 177 2.6 4.3 0.00 0.00 0.00 58
20260506120123 64 101 0.9 1.7 0.00 0.00 0.00 53
20260506115623 61 151 4.3 4.3 0.00 0.00 0.00 58
20260506115122 62 200 1.7 4.3 0.00 0.00 0.00 57
20260506114621 62 9 2.6 3.5 0.00 0.00 0.00 60
20260506114121 60 201 3.5 4.3 0.00 0.00 0.00 60
20260506113620 60 157 2.6 4.3 0.00 0.00 0.00 63
20260506113120 61 186 3.5 4.3 0.00 0.00 0.00 59
20260506112618 62 174 0.9 0.9 0.00 0.00 0.00 56
20260506112118 60 172 4.3 5.2 0.00 0.00 0.00 61
20260506111617 62 147 2.6 4.3 0.00 0.00 0.00 58
20260506111116 61 128 1.7 3.5 0.00 0.00 0.00 60
20260506110615 61 163 1.7 2.6 0.00 0.00 0.00 58
20260506110115 62 204 1.7 1.7 0.00 0.00 0.00 59
20260506105614 62 185 3.5 4.3 0.00 0.00 0.00 55
20260506105113 62 179 2.6 3.5 0.00 0.00 0.00 55
20260506104612 62 145 2.6 4.3 0.00 0.00 0.00 55
20260506104112 60 170 3.5 3.5 0.00 0.00 0.00 62
20260506103611 59 186 1.7 2.6 0.00 0.00 0.00 66
20260506103110 60 124 1.7 2.6 0.00 0.00 0.00 64
20260506102610 59 189 2.6 3.5 0.00 0.00 0.00 69
20260506102109 59 166 2.6 3.5 0.00 0.00 0.00 68
20260506101608 60 175 3.5 4.3 0.00 0.00 0.00 63
20260506101107 60 167 0.9 2.6 0.00 0.00 0.00 65
20260506100607 58 203 3.5 4.3 0.00 0.00 0.00 65
20260506100106 59 160 5.2 5.2 0.00 0.00 0.00 63
20260506095606 59 181 1.7 2.6 0.00 0.00 0.00 67
20260506095105 60 160 0.9 1.7 0.00 0.00 0.00 66
20260506094604 60 180 4.3 6.1 0.00 0.00 0.00 67
20260506094103 59 164 2.6 3.5 0.00 0.00 0.00 63
20260506093603 58 162 5.2 5.2 0.00 0.00 0.00 67
20260506093102 58 187 5.2 7.0 0.00 0.00 0.00 66
20260506092602 58 203 4.3 5.2 0.00 0.00 0.00 65
20260506092101 59 155 1.7 1.7 0.00 0.00 0.00 67
20260506091600 58 150 4.3 4.3 0.00 0.00 0.00 71
20260506091059 58 110 3.5 5.2 0.00 0.00 0.00 66
20260506090559 59 193 4.3 4.3 0.00 0.00 0.00 67
20260506090058 58 107 4.3 5.2 0.00 0.00 0.00 67
20260506085557 59 262 1.7 1.7 0.00 0.00 0.00 69
20260506085057 57 183 3.5 5.2 0.00 0.00 0.00 77
20260506084556 58 156 2.6 2.6 0.00 0.00 0.00 73
20260506084055 56 199 3.5 4.3 0.00 0.00 0.00 75
20260506083554 58 113 0.9 0.9 0.00 0.00 0.00 75
20260506083054 56 153 2.6 4.3 0.00 0.00 0.00 77
20260506082553 55 201 2.6 3.5 0.00 0.00 0.00 78
20260506082052 57 174 0.9 2.6 0.00 0.00 0.00 76
20260506081551 57 186 2.6 4.3 0.00 0.00 0.00 75
20260506081051 56 197 1.7 1.7 0.00 0.00 0.00 78
20260506080550 58 186 4.3 5.2 0.00 0.00 0.00 74
20260506073045 57 180 2.6 2.6 0.00 0.00 0.00 77
20260506072544 57 176 1.7 1.7 0.00 0.00 0.00 77
20260506072044 56 182 2.6 3.5 0.00 0.00 0.00 78
20260506071543 57 189 2.6 4.3 0.00 0.00 0.00 78
20260506071042 56 150 4.3 6.1 0.00 0.00 0.00 78
20260506070542 56 177 2.6 3.5 0.00 0.00 0.00 77
20260506062035 55 152 2.6 1.7 0.00 0.00 0.00 79
20260506061534 55 191 1.7 2.6 0.00 0.00 0.00 77
20260506061034 56 160 0.9 1.7 0.00 0.00 0.00 65
20260506060533 56 137 1.7 3.5 0.00 0.00 0.00 68
20260506051025 55 44 1.7 1.7 0.00 0.00 0.00 74
20260506050524 54 160 0.9 0.9 0.00 0.00 0.00 72
20260506045022 53 131 0.9 1.7 0.00 0.00 0.00 65
20260506044521 54 136 0.9 0.9 0.00 0.00 0.00 56
20260506044021 53 141 0.9 1.7 0.00 0.00 0.00 57
20260506043520 54 154 0.9 1.7 0.00 0.00 0.00 52
20260506043019 55 71 0.0 0.9 0.00 0.00 0.00 51
20260506042519 55 91 0.0 0.0 0.00 0.00 0.00 49
20260506042018 55 111 0.0 0.0 0.00 0.00 0.00 48
20260506041517 56 124 0.9 0.9 0.00 0.00 0.00 42
20260506041016 56 142 0.9 0.9 0.00 0.00 0.00 40
20260506040516 57 128 0.0 0.0 0.00 0.00 0.00 37
20260506040015 56 111 0.0 0.0 0.00 0.00 0.00 39
20260506035514 56 151 0.9 0.9 0.00 0.00 0.00 41
20260506035014 56 107 0.0 0.0 0.00 0.00 0.00 40
20260506034513 56 133 0.9 1.7 0.00 0.00 0.00 41
20260506034012 57 120 0.0 0.0 0.00 0.00 0.00 37
20260506033512 57 346 1.7 1.7 0.00 0.00 0.00 37
20260506033011 56 29 0.9 1.7 0.00 0.00 0.00 39
20260506032510 56 104 0.0 0.0 0.00 0.00 0.00 40
20260506032010 56 111 0.0 0.0 0.00 0.00 0.00 40
20260506031509 57 346 2.6 3.5 0.00 0.00 0.00 38
20260506031008 57 327 2.6 2.6 0.00 0.00 0.00 38
20260506030507 57 303 3.5 3.5 0.00 0.00 0.00 39
20260506030007 56 332 2.6 4.3 0.00 0.00 0.00 40
20260506025506 56 319 2.6 2.6 0.00 0.00 0.00 40
20260506025005 57 307 2.6 4.3 0.00 0.00 0.00 39
20260506024505 57 301 2.6 2.6 0.00 0.00 0.00 39
20260506024004 56 325 3.5 4.3 0.00 0.00 0.00 40
20260506023503 56 333 2.6 2.6 0.00 0.00 0.00 41
20260506023002 56 331 1.7 3.5 0.00 0.00 0.00 41
20260506022500 56 301 2.6 2.6 0.00 0.00 0.00 42
20260506021959 56 325 2.6 4.3 0.00 0.00 0.00 43
20260506021459 56 317 1.7 1.7 0.00 0.00 0.00 44
20260506020958 55 273 2.6 3.5 0.00 0.00 0.00 45
20260506020457 55 326 2.6 4.3 0.00 0.00 0.00 44
20260506015956 55 316 2.6 3.5 0.00 0.00 0.00 45
20260506015456 56 323 2.6 4.3 0.00 0.00 0.00 45
20260506014955 55 303 2.6 3.5 0.00 0.00 0.00 46
20260506014454 55 266 2.6 2.6 0.00 0.00 0.00 46
20260506013954 55 297 1.7 1.7 0.00 0.00 0.00 48
20260506013453 55 356 2.6 3.5 0.00 0.00 0.00 47
20260506012952 55 321 2.6 4.3 0.00 0.00 0.00 47
20260506012452 55 319 1.7 2.6 0.00 0.00 0.00 47
20260506011951 55 330 1.7 1.7 0.00 0.00 0.00 47
20260506011450 55 312 1.7 1.7 0.00 0.00 0.00 46
20260506010949 55 320 1.7 2.6 0.00 0.00 0.00 45
20260506010449 55 296 2.6 2.6 0.00 0.00 0.00 45
20260506005948 55 324 2.6 2.6 0.00 0.00 0.00 47
20260506005447 55 336 1.7 1.7 0.00 0.00 0.00 47
20260506004438 55 270 2.6 1.7 0.00 0.00 0.00 47
20260506003937 55 298 1.7 2.6 0.00 0.00 0.00 47
20260506003437 55 302 0.9 1.7 0.00 0.00 0.00 48
20260506002936 55 321 1.7 2.6 0.00 0.00 0.00 47
20260506002435 55 287 1.7 2.6 0.00 0.00 0.00 47
20260506001935 55 289 1.7 4.3 0.00 0.00 0.00 48
20260506001434 54 331 2.6 3.5 0.00 0.00 0.00 48
20260506000933 55 304 2.6 3.5 0.00 0.00 0.00 47
20260506000432 55 339 1.7 2.6 0.00 0.00 0.00 47
20260505235932 55 349 1.7 1.7 0.00 0.00 0.00 47
20260505235431 55 14 1.7 1.7 0.00 0.00 0.00 46
20260505234930 55 353 0.9 0.9 0.00 0.00 0.00 46
20260505234430 55 0 1.7 1.7 0.00 0.00 0.00 46
20260505233929 55 327 1.7 1.7 0.00 0.00 0.00 45
20260505233428 55 325 1.7 1.7 0.00 0.00 0.00 45
20260505232928 55 321 1.7 1.7 0.00 0.00 0.00 47
20260505232427 54 317 3.5 4.3 0.00 0.00 0.00 48
20260505231926 53 171 0.9 0.9 0.00 0.00 0.00 52
20260505231426 53 37 0.9 0.9 0.00 0.00 0.00 53
20260505230925 53 130 0.9 0.9 0.00 0.00 0.00 53
20260505225923 55 4 0.9 1.7 0.00 0.00 0.00 49
20260505225423 55 316 1.7 1.7 0.00 0.00 0.00 48
20260505224414 55 343 1.7 1.7 0.00 0.00 0.00 48
20260505223913 55 120 0.0 0.0 0.00 0.00 0.00 49
20260505223412 55 349 2.6 2.6 0.00 0.00 0.00 47
20260505222911 55 43 0.9 0.9 0.00 0.00 0.00 47
20260505222411 55 44 0.0 0.0 0.00 0.00 0.00 47
20260505221910 55 45 0.0 0.9 0.00 0.00 0.00 46
20260505221409 56 35 0.9 0.9 0.00 0.00 0.00 47
20260505220908 55 35 0.9 0.9 0.00 0.00 0.00 48
20260505220408 55 34 0.9 0.9 0.00 0.00 0.00 48
20260505215907 55 34 0.9 0.9 0.00 0.00 0.00 48
20260505215406 55 29 0.9 1.7 0.00 0.00 0.00 48
20260505214905 55 34 0.9 0.9 0.00 0.00 0.00 49
20260505214405 55 51 0.9 0.9 0.00 0.00 0.00 49
20260505213904 55 38 0.9 0.9 0.00 0.00 0.00 49
20260505213403 54 84 0.0 0.0 0.00 0.00 0.00 51
20260505212903 54 52 0.0 0.0 0.00 0.00 0.00 51
20260505212402 54 51 0.9 0.9 0.00 0.00 0.00 52
20260505211901 54 59 0.9 0.9 0.00 0.00 0.00 53
20260505211400 54 60 0.0 0.0 0.00 0.00 0.00 52
20260505210859 54 41 0.9 0.9 0.00 0.00 0.00 54
20260505210359 53 58 0.9 0.9 0.00 0.00 0.00 56
20260505205858 53 58 0.9 0.9 0.00 0.00 0.00 58
20260505205357 53 59 0.0 0.0 0.00 0.00 0.00 60
20260505204841 53 52 0.0 0.0 0.00 0.00 0.00 61
20260505204340 52 19 0.9 0.9 0.00 0.00 0.00 62
20260505203839 52 40 0.9 0.9 0.00 0.00 0.00 64
20260505203338 52 354 1.7 1.7 0.00 0.00 0.00 64
20260505202837 52 4 0.9 0.9 0.00 0.00 0.00 66
20260505202337 52 56 0.9 1.7 0.00 0.00 0.00 66
20260505201836 52 359 0.9 1.7 0.00 0.00 0.00 67
20260505201335 52 90 0.9 0.9 0.00 0.00 0.00 66
20260505200834 51 118 0.0 0.0 0.00 0.00 0.00 69
20260505200334 51 127 0.0 0.0 0.00 0.00 0.00 68
20260505195833 52 127 0.0 0.0 0.00 0.00 0.00 69
20260505195332 52 127 0.0 0.0 0.00 0.00 0.00 68
20260505194831 52 112 0.0 0.9 0.00 0.00 0.00 67
20260505194330 52 68 0.0 0.0 0.00 0.00 0.00 65
20260505193830 52 63 0.9 0.9 0.00 0.00 0.00 65
20260505193329 52 36 0.9 1.7 0.00 0.00 0.00 65